• en France
  • Liste des pays
  • À 7 jours
  • Température de l'eau
  • Carte satellitaire
  • Carte météo
  • Widgets météo
  • user-avatar
    Se connecter

    Météo par heure à Abuja

    Ce jour, 13 Novembre, Mardi

    Heure Température Précipitation Vent Pression Humidité
    00:00 +26°C° 0 mm 1 m/s 709 mmHg 29%
    01:00 +25°C° 0 mm 1 m/s 709 mmHg 32%
    02:00 +25°C° 0 mm 1 m/s 709 mmHg 32%
    03:00 +24°C° 0 mm 1 m/s 708 mmHg 33%
    04:00 +24°C° 0 mm 1 m/s 708 mmHg 33%
    05:00 +24°C° 0 mm 1 m/s 708 mmHg 34%
    06:00 +24°C° 0 mm 1 m/s 708 mmHg 34%
    07:00 +24°C° 0 mm 1 m/s 708 mmHg 35%
    08:00 +27°C° 0 mm 1 m/s 709 mmHg 30%
    09:00 +30°C° 0 mm 1 m/s 710 mmHg 26%
    10:00 +33°C° 0 mm 1 m/s 710 mmHg 21%
    11:00 +35°C° 0 mm 2 m/s 710 mmHg 20%
    12:00 +37°C° 0 mm 2 m/s 709 mmHg 19%
    13:00 +38°C° 0 mm 2 m/s 709 mmHg 18%
    14:00 +38°C° 0 mm 2 m/s 708 mmHg 18%
    15:00 +38°C° 0 mm 2 m/s 708 mmHg 18%
    16:00 +37°C° 0 mm 1 m/s 707 mmHg 19%
    17:00 +35°C° 0 mm 1 m/s 707 mmHg 22%
    18:00 +32°C° 0 mm 1 m/s 707 mmHg 26%
    19:00 +30°C° 0 mm 1 m/s 707 mmHg 29%
    20:00 +29°C° 0 mm 1 m/s 708 mmHg 31%
    21:00 +29°C° 0 mm 1 m/s 708 mmHg 32%
    22:00 +26°C° 0 mm 0 m/s 709 mmHg 34%
    23:00 +27°C° 0 mm 1 m/s 708 mmHg 34%

    Demain, 14 Novembre, Mercredi

    Heure Température Précipitation Vent Pression Humidité
    00:00 +27°C° 0 mm 1 m/s 708 mmHg 35%
    01:00 +27°C° 0 mm 1 m/s 708 mmHg 36%
    02:00 +26°C° 0 mm 1 m/s 708 mmHg 36%
    03:00 +26°C° 0 mm 1 m/s 708 mmHg 37%
    04:00 +25°C° 0 mm 1 m/s 708 mmHg 37%
    05:00 +25°C° 0 mm 1 m/s 708 mmHg 37%
    06:00 +25°C° 0 mm 1 m/s 708 mmHg 37%
    07:00 +25°C° 0 mm 2 m/s 708 mmHg 37%
    08:00 +28°C° 0 mm 2 m/s 709 mmHg 32%
    09:00 +30°C° 0 mm 2 m/s 710 mmHg 28%
    10:00 +34°C° 0 mm 2 m/s 710 mmHg 23%
    11:00 +35°C° 0 mm 2 m/s 710 mmHg 21%
    12:00 +37°C° 0 mm 2 m/s 709 mmHg 19%
    13:00 +38°C° 0 mm 2 m/s 709 mmHg 17%
    14:00 +38°C° 0 mm 2 m/s 708 mmHg 17%
    15:00 +38°C° 0 mm 2 m/s 707 mmHg 17%
    16:00 +37°C° 0 mm 1 m/s 707 mmHg 17%
    17:00 +35°C° 0 mm 1 m/s 707 mmHg 20%
    18:00 +33°C° 0 mm 1 m/s 707 mmHg 23%
    19:00 +30°C° 0 mm 1 m/s 707 mmHg 27%
    20:00 +29°C° 0 mm 1 m/s 708 mmHg 28%
    21:00 +29°C° 0 mm 1 m/s 708 mmHg 30%
    22:00 +28°C° 0 mm 1 m/s 709 mmHg 31%
    23:00 +27°C° 0 mm 1 m/s 709 mmHg 32%

    Après-demain, 15 Novembre, Jeudi

    Heure Température Précipitation Vent Pression Humidité
    00:00 +27°C° 0 mm 1 m/s 708 mmHg 33%
    01:00 +26°C° 0 mm 1 m/s 708 mmHg 33%
    02:00 +26°C° 0 mm 1 m/s 708 mmHg 33%
    03:00 +26°C° 0 mm 1 m/s 708 mmHg 33%
    04:00 +25°C° 0 mm 1 m/s 708 mmHg 32%
    05:00 +25°C° 0 mm 1 m/s 708 mmHg 33%
    06:00 +24°C° 0 mm 1 m/s 709 mmHg 34%
    07:00 +24°C° 0 mm 1 m/s 709 mmHg 34%
    08:00 +27°C° 0 mm 2 m/s 710 mmHg 32%
    09:00 +29°C° 0 mm 2 m/s 710 mmHg 29%
    10:00 +32°C° 0 mm 2 m/s 711 mmHg 27%
    11:00 +34°C° 0 mm 2 m/s 711 mmHg 24%
    12:00 +36°C° 0 mm 2 m/s 710 mmHg 21%
    13:00 +38°C° 0 mm 2 m/s 709 mmHg 18%
    14:00 +37°C° 0 mm 1 m/s 709 mmHg 18%
    15:00 +37°C° 0 mm 1 m/s 708 mmHg 17%
    16:00 +37°C° 0 mm 1 m/s 708 mmHg 17%
    17:00 +34°C° 0 mm 1 m/s 708 mmHg 20%
    18:00 +32°C° 0 mm 1 m/s 708 mmHg 23%
    19:00 +30°C° 0 mm 1 m/s 708 mmHg 26%
    20:00 +29°C° 0 mm 1 m/s 708 mmHg 29%
    21:00 +28°C° 0 mm 1 m/s 709 mmHg 33%
    22:00 +27°C° 0 mm 1 m/s 709 mmHg 36%
    23:00 +27°C° 0 mm 1 m/s 709 mmHg 38%

    16 Novembre, Vendredi

    Heure Température Précipitation Vent Pression Humidité
    00:00 +26°C° 0 mm 1 m/s 709 mmHg 40%
    01:00 +26°C° 0 mm 1 m/s 709 mmHg 41%
    02:00 +24°C° 0 mm 0 m/s 709 mmHg 44%
    03:00 +23°C° 0 mm 0 m/s 709 mmHg 47%
    04:00 +23°C° 0 mm 0 m/s 709 mmHg 50%
    05:00 +23°C° 0 mm 0 m/s 709 mmHg 54%
    06:00 +22°C° 0 mm 0 m/s 710 mmHg 59%
    07:00 +22°C° 0 mm 0 m/s 710 mmHg 64%
    08:00 +27°C° 0 mm 1 m/s 711 mmHg 60%
    09:00 +29°C° 0 mm 1 m/s 711 mmHg 57%
    10:00 +31°C° 0 mm 1 m/s 712 mmHg 53%
    11:00 +33°C° 0 mm 1 m/s 711 mmHg 46%
    12:00 +35°C° 0 mm 1 m/s 711 mmHg 40%
    13:00 +36°C° 0 mm 1 m/s 710 mmHg 33%
    14:00 +36°C° 0 mm 1 m/s 710 mmHg 31%
    15:00 +36°C° 0 mm 1 m/s 709 mmHg 30%
    16:00 +36°C° 0 mm 1 m/s 709 mmHg 29%
    17:00 +34°C° 0 mm 1 m/s 709 mmHg 33%
    18:00 +32°C° 0 mm 1 m/s 709 mmHg 37%
    19:00 +30°C° 0 mm 1 m/s 709 mmHg 41%
    20:00 +30°C° 0 mm 1 m/s 709 mmHg 44%
    21:00 +29°C° 0 mm 1 m/s 710 mmHg 46%
    22:00 +28°C° 0 mm 1 m/s 710 mmHg 49%
    23:00 +25°C° 0 mm 0 m/s 710 mmHg 54%

    17 Novembre, Samedi

    Heure Température Précipitation Vent Pression Humidité
    00:00 +25°C° 0 mm 0 m/s 710 mmHg 58%
    01:00 +24°C° 0 mm 0 m/s 710 mmHg 62%
    02:00 +24°C° 0 mm 0 m/s 709 mmHg 66%
    03:00 +23°C° 0 mm 0 m/s 709 mmHg 70%
    04:00 +23°C° 0 mm 0 m/s 709 mmHg 74%
    05:00 +23°C° 0 mm 0 m/s 709 mmHg 76%
    06:00 +23°C° 0 mm 0 m/s 710 mmHg 78%
    07:00 +25°C° 0 mm 1 m/s 710 mmHg 80%
    08:00 +27°C° 0 mm 1 m/s 711 mmHg 71%
    09:00 +29°C° 0 mm 1 m/s 711 mmHg 62%
    10:00 +31°C° 0 mm 2 m/s 712 mmHg 53%
    11:00 +33°C° 0 mm 1 m/s 711 mmHg 46%
    12:00 +35°C° 0 mm 1 m/s 710 mmHg 39%
    13:00 +36°C° 0 mm 1 m/s 710 mmHg 32%
    14:00 +36°C° 0 mm 1 m/s 709 mmHg 31%
    15:00 +36°C° 0 mm 1 m/s 709 mmHg 30%
    16:00 +36°C° 0 mm 1 m/s 708 mmHg 29%
    17:00 +34°C° 0 mm 1 m/s 708 mmHg 32%
    18:00 +33°C° 0 mm 1 m/s 708 mmHg 36%
    19:00 +31°C° 0 mm 1 m/s 708 mmHg 40%
    20:00 +30°C° 0 mm 1 m/s 709 mmHg 42%
    21:00 +30°C° 0 mm 1 m/s 709 mmHg 44%
    22:00 +27°C° 0 mm 0 m/s 710 mmHg 46%
    23:00 +27°C° 0 mm 0 m/s 709 mmHg 47%

    18 Novembre, Dimanche

    Heure Température Précipitation Vent Pression Humidité
    00:00 +26°C° 0 mm 0 m/s 709 mmHg 49%
    01:00 +26°C° 0 mm 0 m/s 709 mmHg 51%
    02:00 +25°C° 0 mm 0 m/s 709 mmHg 54%
    03:00 +25°C° 0 mm 0 m/s 709 mmHg 56%
    04:00 +24°C° 0 mm 0 m/s 708 mmHg 59%
    05:00 +24°C° 0 mm 0 m/s 709 mmHg 62%
    06:00 +24°C° 0 mm 0 m/s 709 mmHg 65%
    07:00 +24°C° 0 mm 0 m/s 710 mmHg 68%
    08:00 +28°C° 0 mm 1 m/s 710 mmHg 62%
    09:00 +30°C° 0 mm 1 m/s 711 mmHg 56%
    10:00 +32°C° 0 mm 1 m/s 711 mmHg 50%
    11:00 +34°C° 0 mm 1 m/s 711 mmHg 44%
    12:00 +36°C° 0 mm 1 m/s 710 mmHg 38%
    13:00 +37°C° 0 mm 1 m/s 710 mmHg 32%
    14:00 +37°C° 0 mm 1 m/s 709 mmHg 32%
    15:00 +36°C° 0 mm 1 m/s 708 mmHg 32%
    16:00 +36°C° 0 mm 1 m/s 708 mmHg 33%
    17:00 +34°C° 0 mm 1 m/s 708 mmHg 36%
    18:00 +32°C° 0 mm 1 m/s 708 mmHg 40%
    19:00 +31°C° 0 mm 1 m/s 708 mmHg 44%
    20:00 +30°C° 0 mm 1 m/s 708 mmHg 47%
    21:00 +29°C° 0 mm 1 m/s 709 mmHg 50%
    22:00 +29°C° 0 mm 1 m/s 709 mmHg 53%
    23:00 +28°C° 0 mm 1 m/s 709 mmHg 57%
    Voir plus